QPF
0.00 0.00 0.00 0.00 0.00 0.00 0.00 0.00 0.00 0.00 0.00 0.00 0.00 0.00 0.00 0.00 0.00 0.00 0.00 0.00 0.00 0.00 0.00 0.00 0.00 0.00 0.01 0.01 0.01 0.00 0.00 0.00 0.01 0.01 0.01 0.01 0.00 0.00 0.00 0.00 0.00 0.00 0.00
0.00 0.00 0.00 0.00 0.00 0.00 0.00 0.00 0.00 0.00 0.00 0.00 0.00 0.00 0.00 0.00 0.00 0.00 0.00 0.00 0.00 0.00 0.00 0.00 0.00 0.00 0.00 0.00 0.00 0.00 0.00 0.00 0.00 0.00 0.00 0.00 0.00 0.00 0.00 0.00 0.00 0.00 0.00
0.00 0.00 0.00 0.00 0.00 0.00 0.00 0.00 0.00 0.00 0.00 0.00 0.00 0.00 0.00 0.00 0.00 0.00 0.00 0.00 0.00 0.00 0.00 0.00 0.00 0.00 0.00 0.00 0.00 0.00 0.00 0.00 0.00 0.00 0.00 0.00 0.00 0.00 0.00 0.00 0.00 0.00 0.00
0.00 0.00 0.00 0.00 0.00 0.00 0.00 0.00 0.00 0.00 0.00 0.00 0.00 0.00 0.00 0.00 0.00 0.00 0.00 0.00 0.00 0.00 0.00 0.00 0.00 0.00 0.00 0.00 0.00 0.00 0.00 0.00 0.00 0.00 0.00 0.00 0.00 0.00 0.00 0.00 0.00 0.01 0.01
0.00 0.00 0.00 0.00 0.00 0.00 0.00 0.00 0.00 0.00 0.00 0.00 0.00 0.00 0.00 0.00 0.00 0.00 0.00 0.00 0.00 0.00 0.00 0.00 0.00 0.00 0.00 0.00 0.00 0.00 0.00 0.00 0.00 0.00 0.00 0.00 0.00 0.00 0.00 0.00 0.00 0.01 0.01
0.00 0.00 0.00 0.00 0.00 0.00 0.00 0.00 0.00 0.00 0.00 0.00 0.00 0.00 0.00 0.00 0.00 0.00 0.00 0.00 0.00 0.00 0.00 0.00 0.00 0.00 0.00 0.00 0.00 0.00 0.00 0.00 0.00 0.00 0.00 0.00 0.00 0.00 0.00 0.01 0.01 0.00 0.00
0.00 0.00 0.00 0.00 0.00 0.00 0.00 0.00 0.00 0.00 0.00 0.00 0.00 0.00 0.00 0.00 0.00 0.00 0.00 0.00 0.00 0.00 0.00 0.00 0.00 0.00 0.00 0.00 0.00 0.00 0.00 0.00 0.00 0.00 0.00 0.00 0.00 0.00 0.00 0.00 0.00 0.00 0.00
0.00 0.00 0.00 0.00 0.00 0.00 0.00 0.00 0.00 0.00 0.00 0.00 0.00 0.00 0.00 0.00 0.00 0.00 0.00 0.00 0.00 0.00 0.00 0.00 0.00 0.00 0.00 0.00 0.00 0.00 0.00 0.00 0.00 0.00 0.00 0.00 0.00 0.00 0.00 0.00 0.00 0.00 0.00
0.00 0.00 0.00 0.00 0.00 0.00 0.00 0.00 0.00 0.00 0.00 0.00 0.00 0.00 0.00 0.00 0.00 0.00 0.00 0.00 0.00 0.00 0.00 0.00 0.00 0.00 0.00 0.00 0.00 0.00 0.00 0.00 0.00 0.00 0.00 0.00 0.00 0.00 0.00 0.00 0.00 0.00 0.00
0.00 0.00 0.00 0.00 0.00 0.00 0.00 0.00 0.00 0.00 0.00 0.00 0.00 0.00 0.00 0.00 0.00 0.00 0.00 0.00 0.00 0.00 0.00 0.00 0.00 0.00 0.00 0.00 0.00 0.00 0.00 0.00 0.00 0.00 0.00 0.00 0.00 0.00 0.00 0.00 0.00 0.00 0.00
0.00 0.00 0.00 0.00 0.00 0.00 0.00 0.00 0.00 0.00 0.00 0.00 0.00 0.00 0.00 0.00 0.00 0.00 0.00 0.00 0.00 0.00 0.00 0.00 0.00 0.00 0.00 0.00 0.00 0.00 0.00 0.00 0.00 0.00 0.00 0.00 0.00 0.00 0.00 0.00 0.00 0.00 0.00
0.00 0.00 0.00 0.00 0.00 0.00 0.00 0.00 0.00 0.00 0.00 0.00 0.00 0.00 0.00 0.00 0.00 0.00 0.00 0.00 0.00 0.00 0.00 0.00 0.00 0.00 0.00 0.00 0.00 0.00 0.00 0.00 0.00 0.00 0.00 0.00 0.00 0.00 0.00 0.00 0.00 0.00 0.00
0.00 0.00 0.00 0.00 0.00 0.00 0.00 0.00 0.00 0.00 0.00 0.00 0.00 0.00 0.00 0.00 0.00 0.00 0.00 0.00 0.00 0.00 0.00 0.00 0.00 0.00 0.00 0.00 0.00 0.00 0.00 0.00 0.00 0.00 0.00 0.00 0.00 0.00 0.00 0.00 0.00 0.00 0.00
0.00 0.00 0.00 0.00 0.00 0.00 0.00 0.00 0.00 0.00 0.00 0.00 0.00 0.00 0.00 0.00 0.00 0.00 0.00 0.00 0.00 0.00 0.00 0.00 0.00 0.00 0.00 0.00 0.00 0.00 0.00 0.00 0.00 0.00 0.00 0.00 0.00 0.00 0.00 0.00 0.00 0.00 0.00
0.00 0.00 0.00 0.00 0.00 0.00 0.00 0.00 0.00 0.00 0.00 0.00 0.00 0.00 0.00 0.00 0.00 0.00 0.00 0.00 0.00 0.00 0.00 0.00 0.00 0.00 0.00 0.00 0.00 0.00 0.00 0.00 0.00 0.00 0.00 0.00 0.00 0.00 0.00 0.00 0.00 0.00 0.00
0.00 0.00 0.00 0.00 0.00 0.00 0.00 0.00 0.00 0.00 0.00 0.00 0.00 0.00 0.00 0.00 0.00 0.00 0.00 0.00 0.00 0.00 0.00 0.00 0.00 0.00 0.00 0.00 0.00 0.00 0.00 0.00 0.00 0.00 0.00 0.00 0.00 0.00 0.00 0.00 0.00 0.00 0.00
0.00 0.00 0.00 0.00 0.00 0.00 0.00 0.00 0.00 0.00 0.00 0.00 0.00 0.00 0.00 0.00 0.00 0.00 0.00 0.00 0.00 0.00 0.00 0.00 0.00 0.00 0.00 0.00 0.00 0.00 0.00 0.00 0.00 0.00 0.00 0.00 0.00 0.00 0.00 0.00 0.00 0.00 0.00
0.00 0.00 0.00 0.00 0.00 0.00 0.00 0.00 0.00 0.00 0.00 0.00 0.00 0.00 0.00 0.00 0.00 0.00 0.00 0.00 0.00 0.00 0.00 0.00 0.00 0.00 0.00 0.00 0.00 0.00 0.00 0.00 0.00 0.00 0.00 0.00 0.00 0.00 0.00 0.00 0.00 0.00 0.00
0.00 0.00 0.00 0.00 0.00 0.00 0.00 0.00 0.00 0.00 0.00 0.00 0.00 0.00 0.00 0.00 0.00 0.00 0.00 0.00 0.00 0.00 0.00 0.00 0.00 0.00 0.00 0.00 0.00 0.00 0.00 0.00 0.00 0.00 0.00 0.00 0.00 0.00 0.00 0.00 0.00 0.00 0.00
0.00 0.00 0.00 0.00 0.00 0.00 0.00 0.00 0.00 0.00 0.00 0.00 0.00 0.00 0.00 0.00 0.00 0.00 0.00 0.00 0.00 0.00 0.00 0.00 0.00 0.00 0.00 0.00 0.00 0.00 0.00 0.00 0.00 0.00 0.00 0.00 0.00 0.00 0.00 0.00 0.00 0.00 0.00
0.00 0.00 0.00 0.00 0.00 0.00 0.00 0.00 0.00 0.00 0.00 0.00 0.00 0.00 0.00 0.00 0.00 0.00 0.00 0.00 0.00 0.00 0.00 0.00 0.00 0.00 0.00 0.00 0.00 0.00 0.00 0.00 0.00 0.00 0.00 0.00 0.00 0.00 0.00 0.00 0.00 0.00 0.00
0.00 0.00 0.00 0.00 0.00 0.00 0.00 0.00 0.00 0.00 0.00 0.00 0.00 0.00 0.00 0.00 0.00 0.00 0.00 0.00 0.00 0.00 0.00 0.00 0.00 0.00 0.00 0.00 0.00 0.00 0.00 0.00 0.00 0.00 0.00 0.00 0.00 0.00 0.00 0.00 0.00 0.00 0.00
0.00 0.00 0.00 0.00 0.00 0.00 0.00 0.00 0.00 0.00 0.00 0.00 0.00 0.00 0.00 0.00 0.00 0.00 0.00 0.00 0.00 0.00 0.00 0.00 0.00 0.00 0.00 0.00 0.00 0.00 0.00 0.00 0.00 0.00 0.00 0.00 0.00 0.00 0.00 0.00 0.00 0.00 0.00
0.00 0.00 0.00 0.00 0.00 0.00 0.00 0.00 0.00 0.00 0.00 0.00 0.00 0.00 0.00 0.00 0.00 0.00 0.00 0.00 0.00 0.00 0.00 0.00 0.00 0.00 0.00 0.00 0.00 0.00 0.00 0.00 0.00 0.00 0.00 0.00 0.00 0.00 0.00 0.00 0.00 0.00 0.00
0.00 0.00 0.00 0.00 0.00 0.00 0.00 0.00 0.00 0.00 0.00 0.00 0.00 0.00 0.00 0.00 0.00 0.00 0.00 0.00 0.00 0.00 0.00 0.00 0.00 0.00 0.00 0.00 0.00 0.00 0.00 0.00 0.01 0.00 0.00 0.00 0.00 0.00 0.00 0.00 0.00 0.00 0.00
0.00 0.00 0.00 0.00 0.00 0.00 0.00 0.00 0.00 0.00 0.00 0.00 0.00 0.00 0.00 0.00 0.00 0.00 0.00 0.00 0.00 0.00 0.00 0.00 0.00 0.00 0.00 0.00 0.00 0.01 0.01 0.02 0.02 0.03 0.00 0.01 0.00 0.00 0.00 0.00 0.00 0.00 0.00
MSLP
1018.68 1018.38 1018.44 1018.39 1018.40 1018.29 1018.11 1017.85 1017.63 1017.55 1017.29 1017.28 1017.10 1017.01 1017.05 1017.54 1017.83 1018.05 1018.33 1018.33 1018.17 1017.87 1017.58 1017.30 1017.18 1017.07 1016.84 1016.73 1016.73 1016.74 1016.67 1016.54 1016.40 1016.23 1016.09 1015.99 1015.92 1015.80 1015.67 1015.50 1015.35 1015.20 1015.02
1018.96 1018.97 1018.68 1018.71 1018.70 1018.70 1018.38 1018.23 1018.10 1017.90 1017.57 1017.38 1017.69 1018.33 1018.15 1018.11 1018.05 1018.21 1018.49 1018.67 1018.66 1018.52 1018.25 1017.99 1017.76 1017.59 1017.28 1017.06 1017.02 1016.99 1017.05 1016.85 1016.79 1016.54 1016.44 1016.32 1016.29 1016.14 1015.94 1015.70 1015.53 1015.26 1014.90
1019.26 1019.13 1019.14 1019.11 1019.17 1019.12 1018.74 1018.39 1018.21 1017.89 1017.68 1018.17 1018.75 1018.76 1018.62 1018.33 1018.21 1018.29 1018.65 1018.62 1018.62 1018.93 1018.79 1018.50 1018.21 1018.00 1017.78 1017.52 1017.30 1017.34 1017.34 1017.24 1017.09 1016.89 1016.71 1016.59 1016.55 1016.44 1016.21 1015.95 1015.75 1015.41 1015.02
1019.52 1019.42 1019.26 1019.45 1019.61 1019.42 1019.21 1018.75 1018.74 1018.21 1018.12 1018.82 1018.84 1018.88 1018.52 1018.10 1018.17 1018.19 1018.28 1018.31 1018.58 1018.58 1018.99 1019.03 1018.82 1018.55 1018.32 1018.03 1017.79 1017.59 1017.57 1017.54 1017.32 1017.10 1016.94 1016.83 1016.77 1016.57 1016.37 1016.08 1015.92 1015.65 1015.40
1019.82 1019.52 1019.58 1019.74 1019.68 1019.63 1019.49 1019.29 1019.07 1018.69 1018.39 1018.79 1018.73 1018.82 1018.54 1018.17 1018.19 1018.32 1018.55 1018.73 1018.94 1018.88 1018.78 1019.30 1019.26 1019.12 1018.86 1018.57 1018.28 1018.03 1017.84 1017.74 1017.59 1017.37 1017.13 1016.97 1016.91 1016.80 1016.54 1016.24 1016.07 1015.90 1015.69
1020.12 1019.85 1019.84 1020.03 1019.91 1019.73 1019.66 1019.52 1019.28 1019.13 1018.82 1018.75 1018.61 1018.68 1018.60 1018.28 1018.34 1018.36 1018.49 1018.63 1018.82 1018.91 1018.88 1018.98 1018.95 1019.18 1019.31 1019.14 1018.87 1018.59 1018.32 1018.05 1017.85 1017.66 1017.44 1017.22 1017.07 1017.02 1016.80 1016.51 1016.32 1016.20 1015.95
1020.31 1020.12 1020.03 1020.08 1020.15 1019.97 1019.94 1019.89 1019.61 1019.38 1019.13 1019.01 1018.73 1018.21 1018.11 1018.14 1018.24 1018.43 1018.53 1018.55 1018.69 1018.88 1018.99 1019.00 1018.96 1018.93 1019.02 1019.25 1019.32 1019.14 1018.87 1018.56 1018.24 1017.99 1017.75 1017.46 1017.26 1017.15 1017.07 1016.92 1016.61 1016.36 1016.19
1020.39 1020.21 1020.28 1020.35 1020.43 1020.16 1020.20 1020.16 1020.04 1019.65 1019.45 1019.39 1019.00 1018.54 1017.94 1017.71 1017.89 1018.14 1018.31 1018.49 1018.63 1018.82 1018.91 1019.05 1019.06 1019.03 1019.04 1018.95 1019.35 1019.37 1019.22 1018.99 1018.62 1018.30 1018.02 1017.75 1017.38 1017.16 1017.06 1016.95 1016.83 1016.50 1016.30
1020.45 1020.41 1020.45 1020.43 1020.41 1020.38 1020.33 1020.34 1020.30 1020.16 1019.83 1019.62 1019.71 1019.62 1018.78 1018.12 1017.98 1017.53 1018.16 1018.38 1018.52 1018.59 1018.52 1018.62 1018.76 1018.82 1018.82 1018.78 1018.95 1018.91 1019.06 1018.98 1018.70 1018.40 1018.15 1017.90 1017.59 1017.27 1017.06 1017.03 1016.93 1016.69 1016.43
1020.27 1020.42 1020.51 1020.57 1020.52 1020.49 1020.43 1020.44 1020.47 1020.48 1020.39 1019.97 1019.85 1019.79 1019.87 1019.69 1019.10 1018.10 1017.81 1017.90 1018.06 1018.17 1018.18 1018.26 1018.27 1018.33 1018.47 1018.58 1018.81 1019.09 1019.19 1019.10 1018.74 1018.35 1017.94 1017.59 1017.40 1017.26 1017.23 1017.17 1017.08 1016.89 1016.62
1020.12 1020.27 1020.47 1020.43 1020.48 1020.45 1020.44 1020.61 1020.58 1020.51 1020.49 1020.40 1020.11 1019.87 1019.75 1019.63 1019.50 1019.33 1018.32 1017.69 1017.82 1017.88 1017.96 1018.08 1017.99 1018.09 1018.21 1018.39 1018.38 1018.46 1018.81 1018.85 1018.63 1018.38 1018.08 1017.75 1017.41 1017.17 1017.22 1017.22 1017.17 1017.03 1016.86
1019.68 1019.97 1020.25 1020.37 1020.28 1020.29 1020.29 1020.36 1020.43 1020.50 1020.50 1020.33 1020.24 1020.08 1019.98 1019.76 1019.27 1019.20 1018.82 1018.19 1017.79 1017.47 1017.50 1017.63 1017.82 1017.78 1017.72 1017.91 1018.15 1018.49 1018.57 1018.60 1018.46 1018.26 1017.98 1017.66 1017.42 1017.31 1017.34 1017.20 1017.03 1016.94 1016.90
1019.33 1019.51 1019.69 1019.97 1019.96 1019.94 1020.07 1020.18 1020.22 1020.22 1020.24 1020.21 1020.03 1019.80 1019.67 1019.68 1019.56 1019.41 1019.22 1018.78 1018.28 1017.64 1017.29 1017.23 1017.15 1017.30 1017.46 1017.61 1017.75 1018.02 1018.25 1018.35 1018.27 1018.07 1017.79 1017.51 1017.40 1017.45 1017.34 1017.22 1016.97 1016.83 1016.84
1019.15 1019.14 1019.39 1019.57 1019.58 1019.63 1019.74 1019.88 1019.97 1019.92 1019.95 1019.92 1019.88 1019.71 1019.57 1019.43 1019.32 1019.24 1019.15 1018.98 1018.45 1017.79 1017.25 1016.77 1016.54 1016.74 1016.98 1017.18 1017.34 1017.62 1017.84 1017.84 1017.84 1017.80 1017.57 1017.39 1017.30 1017.26 1017.22 1017.00 1016.91 1016.80 1016.77
1019.06 1019.15 1019.26 1019.33 1019.32 1019.38 1019.42 1019.51 1019.56 1019.53 1019.51 1019.48 1019.42 1019.30 1019.20 1019.03 1018.96 1018.90 1018.90 1018.85 1018.69 1017.97 1017.02 1016.25 1016.11 1016.14 1016.51 1016.72 1016.86 1017.10 1017.26 1017.11 1017.02 1017.15 1017.14 1017.05 1017.06 1017.07 1016.93 1016.69 1016.54 1016.49 1016.50
1018.76 1018.95 1019.03 1019.02 1019.02 1018.98 1018.91 1019.01 1019.06 1019.04 1018.97 1018.82 1018.69 1018.64 1018.48 1018.37 1018.28 1018.24 1018.30 1018.32 1018.22 1017.88 1017.04 1016.24 1015.86 1015.89 1016.18 1016.28 1016.40 1016.60 1016.62 1016.59 1016.49 1016.50 1016.55 1016.47 1016.44 1016.40 1016.37 1016.28 1016.07 1016.11 1016.12
1018.60 1018.64 1018.66 1018.65 1018.60 1018.51 1018.41 1018.39 1018.38 1018.39 1018.30 1018.16 1018.08 1017.95 1017.70 1017.77 1017.58 1017.58 1017.68 1017.73 1017.66 1017.49 1016.75 1016.05 1015.83 1015.52 1015.41 1015.53 1015.76 1015.86 1015.96 1015.98 1015.84 1015.73 1015.70 1015.70 1015.71 1015.78 1015.68 1015.58 1015.62 1015.65 1015.63
1018.46 1018.46 1018.53 1018.54 1018.47 1018.35 1018.23 1018.12 1018.00 1017.93 1017.77 1017.57 1017.45 1017.42 1017.19 1017.24 1017.12 1017.04 1016.97 1016.90 1016.82 1016.67 1016.34 1015.42 1015.29 1015.10 1014.72 1014.80 1014.94 1015.07 1014.99 1014.86 1014.87 1014.74 1014.76 1014.88 1014.94 1014.99 1014.96 1014.96 1014.98 1015.06 1015.12
1018.49 1018.42 1018.43 1018.38 1018.27 1018.16 1018.07 1017.97 1017.78 1017.55 1017.35 1017.09 1016.85 1016.57 1016.29 1016.24 1016.10 1015.97 1015.93 1015.91 1015.72 1015.62 1015.55 1015.10 1014.42 1014.52 1014.24 1014.13 1014.14 1014.25 1014.24 1014.29 1014.22 1014.14 1014.06 1014.01 1013.96 1014.05 1014.06 1014.08 1014.21 1014.27 1014.41
1018.60 1018.49 1018.39 1018.26 1018.11 1017.96 1017.86 1017.71 1017.51 1017.27 1016.97 1016.64 1016.31 1016.01 1015.78 1015.53 1015.22 1015.06 1014.90 1014.77 1014.66 1014.69 1014.64 1014.28 1013.70 1013.50 1013.52 1013.39 1013.41 1013.53 1013.43 1013.44 1013.30 1013.32 1013.20 1013.15 1013.14 1013.06 1013.12 1013.26 1013.27 1013.40 1013.55
1018.71 1018.53 1018.33 1018.07 1017.87 1017.77 1017.62 1017.55 1017.56 1017.37 1016.94 1016.38 1015.92 1015.54 1015.24 1014.99 1014.76 1014.69 1014.58 1014.19 1014.02 1013.79 1013.52 1013.31 1012.78 1012.57 1012.37 1012.44 1012.22 1012.19 1012.31 1012.32 1012.10 1012.21 1012.20 1012.25 1012.47 1012.43 1012.45 1012.54 1012.59 1012.59 1012.80
1018.59 1018.44 1018.23 1018.01 1017.79 1017.57 1017.38 1017.33 1017.35 1017.10 1016.64 1016.07 1015.45 1014.93 1014.55 1014.25 1013.99 1013.75 1013.61 1013.45 1013.50 1013.22 1012.67 1012.38 1011.80 1011.36 1010.99 1010.96 1011.00 1010.83 1010.96 1011.47 1011.49 1011.11 1011.14 1011.14 1011.40 1011.51 1011.60 1011.65 1011.71 1011.70 1011.93
1018.61 1018.45 1018.23 1018.04 1017.73 1017.41 1017.15 1016.99 1016.85 1016.66 1016.16 1015.59 1014.98 1014.43 1013.99 1013.67 1013.38 1013.04 1012.58 1012.35 1012.20 1012.18 1012.08 1011.81 1010.89 1010.10 1009.87 1009.92 1009.85 1009.85 1009.66 1009.72 1009.79 1009.90 1010.28 1010.46 1010.67 1010.71 1010.82 1010.90 1010.97 1011.05 1011.25
1018.64 1018.42 1018.18 1017.92 1017.65 1017.26 1016.87 1016.64 1016.53 1016.23 1015.60 1015.02 1014.51 1014.09 1013.59 1013.09 1012.85 1012.50 1012.04 1011.63 1011.19 1010.88 1010.74 1010.43 1010.06 1009.26 1009.04 1008.74 1008.49 1008.33 1008.38 1008.67 1009.08 1009.23 1009.58 1009.89 1010.01 1010.00 1010.07 1010.07 1010.21 1010.34 1010.57
1018.59 1018.33 1018.08 1017.71 1017.28 1016.86 1016.56 1016.33 1016.18 1015.84 1015.20 1014.58 1014.07 1013.57 1013.14 1012.71 1012.39 1012.05 1011.65 1011.12 1010.47 1009.99 1009.47 1008.96 1008.66 1008.15 1007.87 1007.84 1007.87 1007.95 1007.94 1008.37 1008.22 1008.41 1008.77 1008.90 1009.12 1009.38 1009.48 1009.43 1009.55 1009.57 1009.73
1018.41 1018.14 1017.75 1017.34 1016.88 1016.44 1016.11 1015.77 1015.66 1015.39 1014.72 1014.08 1013.56 1013.08 1012.70 1012.26 1011.79 1011.56 1011.24 1010.71 1009.80 1009.14 1008.77 1008.21 1007.61 1007.01 1006.74 1006.58 1006.52 1006.82 1007.08 1006.98 1007.24 1007.52 1007.39 1008.10 1008.40 1008.92 1009.42 1008.93 1009.09 1009.20 1009.46
Thickness
5683 5683 5680 5677 5672 5668 5664 5661 5659 5655 5655 5653 5653 5652 5650 5645 5640 5637 5635 5634 5633 5633 5634 5634 5635 5634 5635 5635 5635 5634 5634 5635 5636 5638 5639 5640 5640 5641 5641 5642 5643 5643 5644
5677 5674 5674 5670 5665 5659 5657 5654 5651 5651 5651 5651 5647 5640 5639 5637 5635 5633 5631 5628 5627 5627 5627 5628 5628 5629 5630 5631 5631 5630 5629 5630 5630 5632 5633 5633 5633 5633 5634 5635 5636 5638 5641
5670 5668 5666 5662 5656 5652 5651 5649 5648 5648 5648 5642 5636 5633 5632 5632 5632 5630 5626 5625 5624 5621 5621 5621 5622 5623 5623 5624 5625 5624 5623 5623 5624 5625 5626 5626 5625 5625 5625 5627 5629 5631 5633
5663 5661 5660 5654 5648 5646 5644 5645 5642 5644 5642 5634 5632 5630 5630 5631 5629 5627 5625 5623 5620 5619 5615 5614 5614 5614 5615 5616 5617 5618 5617 5616 5616 5617 5618 5618 5617 5616 5617 5620 5621 5623 5624
5656 5655 5651 5646 5643 5640 5639 5638 5637 5638 5637 5632 5630 5627 5627 5628 5626 5623 5620 5616 5614 5612 5612 5608 5607 5606 5605 5606 5607 5608 5608 5608 5608 5608 5609 5610 5609 5608 5609 5611 5612 5613 5614
5649 5647 5644 5639 5636 5635 5634 5633 5632 5631 5632 5630 5628 5626 5624 5624 5621 5619 5616 5613 5610 5608 5606 5604 5602 5600 5597 5596 5596 5597 5598 5598 5598 5598 5599 5599 5600 5598 5600 5601 5602 5602 5603
5642 5640 5636 5632 5629 5628 5626 5625 5625 5625 5624 5624 5623 5626 5624 5621 5618 5614 5611 5609 5606 5603 5600 5598 5596 5594 5592 5589 5587 5586 5586 5587 5587 5587 5587 5589 5589 5589 5588 5589 5591 5593 5592
5636 5633 5628 5624 5620 5621 5618 5617 5617 5618 5617 5615 5617 5618 5620 5621 5615 5612 5608 5604 5601 5597 5594 5591 5589 5587 5585 5584 5580 5578 5576 5576 5576 5576 5577 5578 5580 5581 5580 5579 5580 5583 5584
5629 5626 5621 5617 5614 5613 5611 5609 5609 5608 5609 5609 5605 5603 5610 5612 5609 5612 5603 5599 5595 5593 5591 5587 5584 5581 5579 5578 5575 5573 5570 5568 5568 5568 5568 5569 5570 5571 5572 5571 5570 5572 5573
5624 5619 5614 5610 5609 5607 5605 5603 5601 5599 5598 5600 5599 5596 5593 5591 5593 5599 5600 5595 5592 5588 5585 5581 5579 5576 5572 5570 5567 5563 5560 5558 5558 5559 5560 5561 5560 5560 5559 5558 5557 5557 5559
5618 5613 5608 5606 5604 5601 5599 5595 5594 5593 5591 5589 5590 5589 5587 5584 5582 5580 5585 5590 5587 5581 5578 5574 5571 5567 5564 5560 5559 5556 5552 5549 5548 5547 5547 5547 5547 5547 5545 5544 5544 5543 5543
5615 5609 5604 5600 5598 5596 5594 5591 5588 5586 5584 5583 5581 5579 5576 5576 5577 5574 5573 5576 5576 5575 5572 5567 5562 5559 5557 5553 5549 5545 5542 5539 5537 5536 5535 5535 5536 5534 5532 5532 5531 5530 5528
5611 5606 5601 5597 5594 5592 5589 5586 5583 5581 5578 5576 5574 5573 5570 5566 5563 5561 5559 5559 5560 5563 5563 5559 5556 5551 5547 5544 5541 5537 5532 5528 5526 5524 5523 5523 5521 5519 5518 5518 5517 5515 5514
5605 5602 5597 5593 5590 5588 5585 5581 5577 5575 5573 5569 5566 5563 5561 5558 5555 5552 5549 5547 5546 5550 5552 5551 5550 5543 5539 5535 5531 5527 5522 5518 5515 5513 5511 5510 5509 5507 5504 5503 5501 5500 5499
5598 5594 5591 5587 5585 5582 5579 5576 5572 5569 5567 5563 5559 5556 5553 5551 5547 5544 5539 5535 5531 5533 5539 5544 5539 5536 5528 5523 5520 5515 5511 5509 5506 5502 5499 5497 5494 5491 5490 5489 5488 5486 5484
5592 5588 5584 5581 5579 5576 5573 5570 5566 5563 5559 5556 5554 5550 5547 5543 5540 5536 5531 5526 5522 5520 5522 5529 5526 5522 5516 5511 5507 5503 5500 5496 5494 5491 5488 5486 5483 5481 5479 5476 5475 5472 5470
5584 5581 5578 5575 5573 5570 5568 5565 5561 5556 5553 5550 5546 5543 5541 5534 5532 5527 5520 5515 5511 5507 5509 5515 5511 5508 5507 5501 5495 5491 5486 5484 5482 5479 5477 5474 5473 5469 5467 5466 5462 5460 5457
5576 5572 5569 5566 5563 5561 5558 5555 5552 5548 5545 5542 5538 5533 5530 5524 5520 5514 5510 5506 5502 5497 5495 5501 5498 5495 5493 5488 5483 5478 5475 5473 5471 5468 5467 5464 5461 5459 5457 5454 5451 5447 5444
5566 5563 5560 5557 5554 5551 5547 5543 5541 5538 5535 5532 5528 5525 5522 5516 5512 5506 5500 5496 5492 5487 5482 5482 5486 5480 5478 5474 5470 5465 5461 5459 5457 5456 5455 5453 5451 5449 5447 5444 5440 5435 5431
5556 5553 5550 5546 5543 5540 5536 5533 5530 5527 5524 5520 5517 5513 5508 5504 5501 5495 5490 5486 5481 5475 5470 5467 5471 5469 5464 5460 5454 5451 5447 5444 5445 5443 5443 5443 5440 5439 5436 5433 5430 5425 5421
5544 5541 5538 5535 5532 5528 5525 5520 5514 5510 5507 5506 5503 5499 5495 5489 5484 5477 5471 5469 5463 5459 5457 5455 5457 5454 5452 5447 5443 5439 5436 5433 5435 5433 5433 5431 5428 5426 5425 5421 5418 5414 5410
5533 5529 5525 5522 5519 5515 5510 5504 5498 5495 5492 5490 5489 5486 5481 5476 5471 5465 5458 5452 5443 5439 5440 5437 5441 5440 5442 5437 5432 5429 5424 5420 5419 5421 5418 5419 5415 5415 5412 5410 5406 5404 5399
5519 5515 5512 5508 5504 5500 5495 5490 5484 5480 5477 5474 5472 5469 5465 5459 5452 5448 5446 5441 5436 5428 5419 5416 5424 5432 5428 5423 5418 5415 5415 5413 5413 5409 5405 5404 5400 5401 5399 5397 5394 5391 5386
5506 5502 5497 5492 5488 5484 5479 5473 5467 5463 5461 5458 5454 5449 5445 5441 5434 5429 5427 5426 5425 5420 5413 5408 5404 5414 5409 5411 5405 5405 5402 5398 5396 5394 5387 5384 5387 5385 5383 5384 5380 5377 5374
5491 5486 5481 5477 5472 5469 5462 5456 5450 5446 5444 5441 5437 5433 5428 5425 5419 5412 5407 5405 5409 5407 5400 5396 5394 5395 5394 5390 5385 5378 5378 5373 5376 5375 5368 5367 5371 5368 5366 5368 5367 5365 5362
5477 5471 5467 5462 5457 5453 5447 5440 5432 5427 5428 5427 5424 5419 5413 5407 5402 5394 5386 5381 5383 5384 5376 5375 5374 5374 5372 5368 5367 5356 5354 5352 5353 5348 5356 5345 5349 5345 5341 5350 5350 5348 5347